Home   Weather   Haltern am See   Past weeks

Flag for Germany Past Weather in Haltern am See, North Rhine-Westphalia, Germany — Yesterday and Last 2 Weeks

46 °F

Drizzle. Fog.

Feels Like: 45 °F
Forecast: 40 / 51 °F
Wind: 3 mph from North

Location: Muenster / Osnabrueck

Current Time: Oct 25, 2016 at 5:12:59 AM

Latest Report: Oct 25, 2016 at 4:20 AM

Visibility: 2 mi

Pressure: 30.04 "Hg

Humidity: 93%

Dew Point: 45 °F

Location of Haltern am SeeLocation

Past Weather in Haltern am See — Graph


Haltern am See Temperature Yesterday

Maximum temperature yesterday: 48 °F (at 1:20 PM)
Minimum temperature yesterday: 39 °F (at 1:20 AM)
Average temperature yesterday: 44 °F

High & Low Weather Summary for the Past Weeks

High64 °F (Oct 16, 2:50 PM)100% (Oct 10, 4:20 AM)30.27 "Hg (Oct 10, 4:20 AM)
Low32 °F (Oct 11, 2:50 AM)54% (Oct 10, 3:50 PM)29.68 "Hg (Oct 15, 1:20 AM)
Average47 °F89%30.01 "Hg
* Reported Oct 10 3:20 AM — Oct 25 3:50 AM, Haltern am See, Weather by CustomWeather, © 2016

Note: Actual official high and low records may vary slightly from our data, if they occured in-between our weather recording intervals... More about our weather records


Haltern am See Weather History for the Previous 24 Hours

Scroll right to see more
Time TempWeatherWind HumidityBarometerVisibility
3:50 AM
Tue, Oct 25
46 °FDrizzle. Fog.3 mph93%30.01 "Hg1 mi
3:20 AM46 °FDrizzle. Fog.2 mph93%30.01 "Hg1 mi
2:50 AM46 °FDrizzle. Fog.1 mph93%30.01 "Hg2 mi
2:20 AM46 °FDrizzle. Fog.3 mph93%30.01 "Hg2 mi
1:50 AM46 °FDrizzle. Fog.3 mph93%30.01 "Hg2 mi
1:20 AM46 °FPartly cloudy.5 mph93%30.01 "Hg4 mi
12:50 AM46 °FPartly cloudy.3 mph93%30.01 "Hg4 mi
12:20 AM46 °FPartly cloudy.3 mph93%29.98 "Hg4 mi
11:50 PM
Mon, Oct 24
46 °FPassing clouds.5 mph93%29.98 "HgN/A
11:20 PM46 °FPassing clouds.3 mph93%29.98 "HgN/A
10:50 PM46 °FPassing clouds.2 mph93%29.98 "HgN/A
10:20 PM46 °FLight rain. Passing clouds.2 mph93%29.98 "HgN/A
9:50 PM46 °FLight rain. Passing clouds.3 mph93%29.98 "Hg6 mi
9:20 PM46 °FPassing clouds.3 mph93%29.95 "Hg4 mi
8:50 PM46 °FPassing clouds.2 mph93%29.98 "Hg4 mi
8:20 PM46 °FPassing clouds.2 mph93%29.95 "Hg4 mi
7:50 PM46 °FDrizzle. Fog.3 mph93%29.95 "Hg3 mi
7:20 PM46 °FDrizzle. Fog.3 mph93%29.95 "Hg2 mi
6:50 PM46 °FDrizzle. Fog.3 mph93%29.95 "Hg2 mi
6:20 PM46 °FDrizzle. Fog.5 mph93%29.95 "Hg2 mi
5:50 PM46 °FDrizzle. Fog.5 mph93%29.95 "Hg1 mi
5:20 PM46 °FDrizzle. Fog.6 mph93%29.95 "Hg1 mi
4:50 PM46 °FLight rain. Fog.6 mph93%29.95 "Hg1 mi
4:20 PM46 °FLight rain. Fog.5 mph93%29.92 "Hg2 mi
3:50 PM46 °FLight rain. Fog.5 mph93%29.92 "Hg2 mi
3:20 PM48 °FLight rain. Partly sunny.3 mph87%29.92 "Hg4 mi
2:50 PM48 °FLight rain. Clear.5 mph82%29.92 "HgN/A
2:20 PM48 °FPassing clouds.5 mph82%29.92 "HgN/A
1:50 PM48 °FPassing clouds.3 mph82%29.92 "HgN/A
1:20 PM48 °FPassing clouds.7 mph82%29.92 "HgN/A
12:50 PM46 °FPassing clouds.6 mph87%29.92 "HgN/A
12:20 PM46 °FPassing clouds.5 mph87%29.95 "HgN/A
11:50 AM46 °FPassing clouds.6 mph87%29.95 "HgN/A
11:20 AM45 °FPassing clouds.5 mph87%29.95 "HgN/A
10:50 AM45 °FPassing clouds.7 mph87%29.95 "HgN/A
10:20 AM43 °FPassing clouds.6 mph93%29.95 "HgN/A
9:50 AM43 °FClear.6 mph93%29.95 "Hg6 mi
9:20 AM43 °FClear.7 mph93%29.95 "Hg5 mi
8:50 AM41 °FClear.3 mph93%29.95 "Hg4 mi
8:20 AM41 °FClear.5 mph93%29.95 "Hg4 mi
7:50 AM41 °FClear.6 mph93%29.95 "Hg4 mi
7:20 AM41 °FClear.6 mph93%29.95 "Hg4 mi
6:50 AM41 °FClear.5 mph93%29.95 "Hg4 mi
6:20 AM41 °FClear.5 mph93%29.92 "Hg4 mi
5:50 AM41 °FClear.5 mph93%29.92 "Hg4 mi
5:20 AM41 °FClear.3 mph93%29.92 "Hg4 mi
Weather by CustomWeather, © 2016

See weather overviewHow to use our weather pages